When you browse on this site, cookies collect data to enhance your experience and personalize the content and advertising you see.
Visit our Privacy Policy to learn more. By continuing to use the site, you agree to this use of cookies and data.
  • en France
  • Liste des pays
  • À 7 jours
  • Température de l'eau
  • Carte météo
  • Widgets météo
  • user-avatar
    Se connecter

    Météo par heure à Tamalé

    Ce jour, 2 Juin, Mardi

    Heure Température Précipitation Vent Pression Humidité
    00:00 +23°C° 5.5 mm 5 m/s 744 mmHg 83%
    01:00 +24°C° 0.1 mm 3 m/s 743 mmHg 84%
    02:00 +25°C° 0.1 mm 2 m/s 742 mmHg 85%
    03:00 +23°C° 0.1 mm 0 m/s 742 mmHg 86%
    04:00 +23°C° 0 mm 0 m/s 742 mmHg 87%
    05:00 +23°C° 0 mm 0 m/s 742 mmHg 87%
    06:00 +23°C° 0 mm 0 m/s 743 mmHg 88%
    07:00 +26°C° 0.2 mm 1 m/s 743 mmHg 82%
    08:00 +28°C° 0.2 mm 1 m/s 744 mmHg 77%
    09:00 +29°C° 0.2 mm 2 m/s 744 mmHg 72%
    10:00 +31°C° 0 mm 2 m/s 744 mmHg 63%
    11:00 +34°C° 0 mm 2 m/s 743 mmHg 55%
    12:00 +37°C° 0 mm 2 m/s 743 mmHg 46%
    13:00 +37°C° 0 mm 2 m/s 742 mmHg 44%
    14:00 +37°C° 0 mm 1 m/s 741 mmHg 43%
    15:00 +37°C° 0 mm 1 m/s 740 mmHg 41%
    16:00 +36°C° 0 mm 1 m/s 741 mmHg 47%
    17:00 +34°C° 0 mm 1 m/s 741 mmHg 53%
    18:00 +34°C° 0 mm 2 m/s 741 mmHg 59%
    19:00 +31°C° 0.1 mm 2 m/s 741 mmHg 65%
    20:00 +30°C° 0.1 mm 3 m/s 742 mmHg 70%
    21:00 +29°C° 0.1 mm 3 m/s 742 mmHg 75%
    22:00 +29°C° 0.1 mm 3 m/s 742 mmHg 78%
    23:00 +28°C° 0.1 mm 3 m/s 742 mmHg 81%

    Demain, 3 Juin, Mercredi

    Heure Température Précipitation Vent Pression Humidité
    00:00 +28°C° 0.1 mm 3 m/s 742 mmHg 84%
    01:00 +27°C° 0 mm 3 m/s 742 mmHg 86%
    02:00 +27°C° 0 mm 3 m/s 742 mmHg 88%
    03:00 +27°C° 0 mm 3 m/s 741 mmHg 89%
    04:00 +27°C° 0 mm 3 m/s 742 mmHg 90%
    05:00 +27°C° 0 mm 3 m/s 742 mmHg 90%
    06:00 +27°C° 0 mm 3 m/s 742 mmHg 91%
    07:00 +28°C° 0 mm 3 m/s 742 mmHg 85%
    08:00 +29°C° 0 mm 3 m/s 743 mmHg 79%
    09:00 +30°C° 0 mm 4 m/s 743 mmHg 74%
    10:00 +33°C° 0 mm 4 m/s 742 mmHg 67%
    11:00 +35°C° 0 mm 4 m/s 742 mmHg 61%
    12:00 +36°C° 0 mm 4 m/s 742 mmHg 54%
    13:00 +37°C° 0 mm 4 m/s 741 mmHg 53%
    14:00 +37°C° 0 mm 3 m/s 741 mmHg 51%
    15:00 +38°C° 0 mm 3 m/s 740 mmHg 49%
    16:00 +36°C° 0 mm 3 m/s 740 mmHg 54%
    17:00 +35°C° 0 mm 3 m/s 740 mmHg 58%
    18:00 +34°C° 0 mm 2 m/s 741 mmHg 63%
    19:00 +31°C° 0.1 mm 2 m/s 741 mmHg 67%
    20:00 +30°C° 0.1 mm 2 m/s 742 mmHg 70%
    21:00 +29°C° 0.1 mm 2 m/s 742 mmHg 74%
    22:00 +29°C° 0 mm 2 m/s 742 mmHg 76%
    23:00 +28°C° 0 mm 2 m/s 743 mmHg 77%

    Après-demain, 4 Juin, Jeudi

    Heure Température Précipitation Vent Pression Humidité
    00:00 +28°C° 0 mm 2 m/s 743 mmHg 79%
    01:00 +28°C° 0.1 mm 2 m/s 742 mmHg 80%
    02:00 +27°C° 0.1 mm 3 m/s 742 mmHg 82%
    03:00 +27°C° 0.1 mm 3 m/s 742 mmHg 84%
    04:00 +26°C° 0.1 mm 3 m/s 742 mmHg 86%
    05:00 +26°C° 0.1 mm 2 m/s 743 mmHg 88%
    06:00 +26°C° 0.1 mm 2 m/s 743 mmHg 91%
    07:00 +27°C° 0.2 mm 2 m/s 743 mmHg 85%
    08:00 +29°C° 0.2 mm 3 m/s 744 mmHg 79%
    09:00 +30°C° 0.2 mm 3 m/s 744 mmHg 73%
    10:00 +33°C° 0 mm 3 m/s 743 mmHg 67%
    11:00 +34°C° 0 mm 3 m/s 743 mmHg 62%
    12:00 +35°C° 0 mm 3 m/s 742 mmHg 56%
    13:00 +36°C° 0 mm 3 m/s 741 mmHg 53%
    14:00 +37°C° 0 mm 3 m/s 741 mmHg 50%
    15:00 +38°C° 0 mm 3 m/s 740 mmHg 47%
    16:00 +37°C° 0 mm 3 m/s 740 mmHg 51%
    17:00 +35°C° 0 mm 2 m/s 740 mmHg 56%
    18:00 +33°C° 0 mm 1 m/s 741 mmHg 60%
    19:00 +32°C° 0.2 mm 2 m/s 741 mmHg 65%
    20:00 +30°C° 0.2 mm 2 m/s 742 mmHg 71%
    21:00 +29°C° 0.2 mm 2 m/s 742 mmHg 77%
    22:00 +28°C° 0 mm 2 m/s 742 mmHg 78%
    23:00 +28°C° 0 mm 2 m/s 742 mmHg 79%

    5 Juin, Vendredi

    Heure Température Précipitation Vent Pression Humidité
    00:00 +27°C° 0 mm 2 m/s 742 mmHg 81%
    01:00 +27°C° 0.3 mm 2 m/s 742 mmHg 84%
    02:00 +26°C° 0.3 mm 2 m/s 742 mmHg 87%
    03:00 +26°C° 0.3 mm 2 m/s 742 mmHg 91%
    04:00 +26°C° 0.3 mm 2 m/s 742 mmHg 92%
    05:00 +26°C° 0.3 mm 2 m/s 743 mmHg 93%
    06:00 +25°C° 0.3 mm 2 m/s 743 mmHg 94%
    07:00 +27°C° 0 mm 2 m/s 744 mmHg 88%
    08:00 +28°C° 0 mm 2 m/s 745 mmHg 82%
    09:00 +29°C° 0 mm 2 m/s 745 mmHg 76%
    10:00 +31°C° 0 mm 2 m/s 744 mmHg 70%
    11:00 +32°C° 0 mm 2 m/s 744 mmHg 63%
    12:00 +34°C° 0 mm 3 m/s 743 mmHg 57%
    13:00 +35°C° 0 mm 3 m/s 742 mmHg 53%
    14:00 +37°C° 0 mm 3 m/s 742 mmHg 49%
    15:00 +38°C° 0 mm 2 m/s 741 mmHg 45%
    16:00 +36°C° 0 mm 2 m/s 741 mmHg 50%
    17:00 +35°C° 0 mm 2 m/s 741 mmHg 55%
    18:00 +32°C° 0 mm 2 m/s 742 mmHg 60%
    19:00 +31°C° 0.2 mm 2 m/s 742 mmHg 65%
    20:00 +30°C° 0.2 mm 2 m/s 742 mmHg 70%
    21:00 +29°C° 0.2 mm 2 m/s 743 mmHg 76%
    22:00 +28°C° 0 mm 2 m/s 743 mmHg 77%
    23:00 +28°C° 0 mm 2 m/s 743 mmHg 79%

    6 Juin, Samedi

    Heure Température Précipitation Vent Pression Humidité
    00:00 +27°C° 0 mm 1 m/s 743 mmHg 80%
    01:00 +27°C° 0 mm 1 m/s 743 mmHg 82%
    02:00 +27°C° 0 mm 1 m/s 743 mmHg 84%
    03:00 +26°C° 0 mm 1 m/s 743 mmHg 86%
    04:00 +26°C° 0.3 mm 1 m/s 743 mmHg 88%
    05:00 +26°C° 0.3 mm 1 m/s 743 mmHg 89%
    06:00 +26°C° 0.3 mm 1 m/s 743 mmHg 91%
    07:00 +27°C° 0 mm 2 m/s 744 mmHg 83%
    08:00 +29°C° 0 mm 2 m/s 745 mmHg 75%
    09:00 +30°C° 0 mm 3 m/s 745 mmHg 68%
    10:00 +33°C° 0 mm 3 m/s 745 mmHg 61%
    11:00 +35°C° 0 mm 2 m/s 745 mmHg 55%
    12:00 +36°C° 0 mm 2 m/s 744 mmHg 49%
    13:00 +35°C° 0 mm 1 m/s 744 mmHg 48%
    14:00 +35°C° 0 mm 1 m/s 743 mmHg 47%
    15:00 +35°C° 0 mm 1 m/s 742 mmHg 46%
    16:00 +34°C° 0 mm 1 m/s 742 mmHg 51%
    17:00 +33°C° 0 mm 1 m/s 742 mmHg 56%
    18:00 +32°C° 0 mm 1 m/s 742 mmHg 60%
    19:00 +31°C° 0 mm 1 m/s 742 mmHg 63%
    20:00 +30°C° 0 mm 1 m/s 742 mmHg 66%
    21:00 +29°C° 0 mm 1 m/s 743 mmHg 68%
    22:00 +29°C° 0 mm 1 m/s 743 mmHg 71%
    23:00 +28°C° 0 mm 1 m/s 743 mmHg 74%

    7 Juin, Dimanche

    Heure Température Précipitation Vent Pression Humidité
    00:00 +28°C° 0 mm 1 m/s 742 mmHg 76%
    01:00 +28°C° 0 mm 1 m/s 742 mmHg 79%
    02:00 +27°C° 0 mm 1 m/s 742 mmHg 81%
    03:00 +27°C° 0 mm 2 m/s 742 mmHg 83%
    04:00 +27°C° 0 mm 2 m/s 742 mmHg 85%
    05:00 +26°C° 0 mm 2 m/s 743 mmHg 87%
    06:00 +26°C° 0 mm 2 m/s 743 mmHg 89%
    07:00 +28°C° 0 mm 3 m/s 744 mmHg 83%
    08:00 +29°C° 0 mm 3 m/s 744 mmHg 77%
    09:00 +30°C° 0 mm 4 m/s 745 mmHg 71%
    10:00 +31°C° 0 mm 3 m/s 744 mmHg 67%
    11:00 +33°C° 0 mm 3 m/s 744 mmHg 63%
    12:00 +34°C° 0 mm 3 m/s 743 mmHg 59%
    13:00 +35°C° 0 mm 3 m/s 743 mmHg 55%
    14:00 +36°C° 0 mm 3 m/s 742 mmHg 51%
    15:00 +37°C° 0 mm 3 m/s 741 mmHg 46%
    16:00 +36°C° 0.1 mm 2 m/s 741 mmHg 52%
    17:00 +35°C° 0.1 mm 2 m/s 741 mmHg 57%
    18:00 +32°C° 0.1 mm 2 m/s 741 mmHg 63%
    19:00 +31°C° 0 mm 2 m/s 741 mmHg 66%
    20:00 +30°C° 0 mm 2 m/s 742 mmHg 69%
    21:00 +29°C° 0 mm 2 m/s 742 mmHg 73%
    22:00 +29°C° 0 mm 2 m/s 742 mmHg 75%
    23:00 +28°C° 0 mm 2 m/s 742 mmHg 77%
    Voir plus